Date String (YYYY-MM-DD hh:mm:ss) UTC,Instrument flags,Ambient pressure (hPa),Sample flow (lpm),Bypass flow (lpm),Sample temperature (°C),Ambient temperature (°C),ASC tube jacket temperature (°C),LED temperature (°C),Box temperature (°C),Sample RH (%),Span deviation,Mass concentration (μg/m³),Mass concentration (μg/m³),Mass concentration (μg/m³)
DateTimeUTC,F1_M11,P_M11,Q1_M11,Q2_M11,T1_M11,T2_M11,T3_M11,T4_M11,T5_M11,U1_M11,ZSPAN_M11,X0_M11,X2_M11,X1_M11
2022-10-30 10:00:00,,0828.6,5.01,0.00,24.3,22.6,00.0,33.2,26.1,09.2,0000.0,0010.09,0004.30,0003.98
2022-10-30 10:01:00,,0828.8,5.00,0.00,24.3,22.6,00.0,33.2,26.1,09.2,0000.0,0010.05,0004.29,0003.99
2022-10-30 10:02:00,,0828.7,4.98,0.00,24.3,22.6,00.0,33.2,26.0,09.2,0000.0,0009.75,0004.28,0003.98
2022-10-30 10:03:00,,0828.5,5.01,0.00,24.3,22.6,00.0,33.2,26.1,09.2,0000.0,0009.87,0004.28,0003.99
2022-10-30 10:04:00,,0828.5,5.01,0.00,24.3,22.6,00.0,33.2,26.1,09.2,0000.0,0009.63,0004.31,0004.02
2022-10-30 10:05:00,,0828.5,4.98,0.00,24.3,22.6,00.0,33.2,26.1,09.1,0000.0,0008.99,0004.38,0004.04
2022-10-30 10:06:00,,0828.4,5.01,0.00,24.3,22.6,00.0,33.2,26.1,09.1,0000.0,0009.01,0004.43,0004.07
2022-10-30 10:07:00,,0828.5,5.01,0.00,24.3,22.6,00.0,33.2,26.1,09.1,0000.0,0009.12,0004.49,0004.09
2022-10-30 10:08:00,,0828.5,4.99,0.00,24.3,22.6,00.0,33.2,26.0,09.1,0000.0,0009.43,0004.53,0004.12
2022-10-30 10:09:00,,0828.5,5.00,0.00,24.3,22.6,00.0,33.2,26.0,09.1,0000.0,0009.32,0004.53,0004.14
2022-10-30 10:10:00,,0828.5,5.01,0.00,24.3,22.6,00.0,33.2,26.1,09.1,0000.0,0009.07,0004.59,0004.17
2022-10-30 10:11:00,,0828.5,5.00,0.00,24.3,22.6,00.0,33.2,26.0,09.1,0000.0,0009.05,0004.62,0004.20
2022-10-30 10:12:00,,0828.5,4.98,0.00,24.3,22.6,00.0,33.2,26.0,09.1,0000.0,0009.02,0004.62,0004.22
2022-10-30 10:13:00,,0828.5,5.01,0.00,24.2,22.6,00.0,33.2,26.0,09.1,0000.0,0009.11,0004.65,0004.24
2022-10-30 10:14:00,,0828.4,5.01,0.00,24.2,22.6,00.0,33.2,26.1,09.1,0000.0,0009.09,0004.67,0004.27
2022-10-30 10:15:00,,0828.5,4.98,0.00,24.2,22.6,00.0,33.2,26.0,09.1,0000.0,0008.79,0004.69,0004.28
2022-10-30 10:16:00,,0828.5,5.00,0.00,24.2,22.5,00.0,33.2,26.0,09.1,0000.0,0009.29,0004.69,0004.28
2022-10-30 10:17:00,,0828.4,5.01,0.00,24.2,22.5,00.0,33.2,26.0,09.1,0000.0,0009.38,0004.68,0004.28
2022-10-30 10:18:00,,0828.4,5.00,0.00,24.2,22.6,00.0,33.1,26.0,09.1,0000.0,0009.34,0004.65,0004.28
2022-10-30 10:19:00,,0828.4,4.99,0.00,24.2,22.6,00.0,33.1,25.9,09.1,0000.0,0009.21,0004.68,0004.28
2022-10-30 10:20:00,,0828.3,4.99,0.00,24.2,22.5,00.0,33.1,25.9,09.1,0000.0,0008.84,0004.69,0004.28
2022-10-30 10:21:00,,0828.3,5.00,0.00,24.2,22.5,00.0,33.1,26.0,09.1,0000.0,0008.80,0004.68,0004.27
2022-10-30 10:22:00,,0828.3,5.00,0.00,24.2,22.5,00.0,33.1,26.0,09.1,0000.0,0008.81,0004.68,0004.27
2022-10-30 10:23:00,,0828.3,5.01,0.00,24.2,22.5,00.0,33.1,26.0,09.1,0000.0,0008.95,0004.73,0004.28
2022-10-30 10:24:00,,0828.3,4.98,0.00,24.2,22.5,00.0,33.1,26.0,09.1,0000.0,0008.89,0004.72,0004.27
2022-10-30 10:25:00,,0828.3,5.01,0.00,24.2,22.5,00.0,33.1,26.0,09.1,0000.0,0008.81,0004.71,0004.26
2022-10-30 10:26:00,,0828.3,5.01,0.00,24.2,22.5,00.0,33.1,26.0,09.1,0000.0,0008.52,0004.68,0004.25
2022-10-30 10:27:00,,0828.3,4.99,0.00,24.2,22.5,00.0,33.1,25.9,09.2,0000.0,0007.91,0004.65,0004.25
2022-10-30 10:28:00,,0828.3,5.01,0.00,24.2,22.5,00.0,33.1,25.9,09.2,0000.0,0007.85,0004.64,0004.25
2022-10-30 10:29:00,,0828.3,5.01,0.00,24.2,22.5,00.0,33.1,26.0,09.2,0000.0,0008.28,0004.64,0004.26
2022-10-30 10:30:00,,0828.4,5.00,0.00,24.2,22.5,00.0,33.1,25.9,09.2,0000.0,0008.00,0004.59,0004.24
2022-10-30 10:31:00,,0828.3,4.98,0.00,24.1,22.5,00.0,33.1,25.9,09.2,0000.0,0008.30,0004.58,0004.23
2022-10-30 10:32:00,,0828.3,5.01,0.00,24.1,22.5,00.0,33.1,25.9,09.2,0000.0,0008.35,0004.58,0004.22
2022-10-30 10:33:00,,0828.4,5.01,0.00,24.1,22.5,00.0,33.1,25.9,09.2,0000.0,0008.32,0004.55,0004.21
2022-10-30 10:34:00,,0828.5,4.98,0.00,24.1,22.5,00.0,33.0,25.9,09.4,0000.0,0008.27,0004.53,0004.20
2022-10-30 10:35:00,,0828.4,5.01,0.00,24.1,22.5,00.0,33.0,25.8,09.5,0000.0,0008.41,0004.51,0004.19
2022-10-30 10:36:00,,0828.4,5.01,0.00,24.1,22.4,00.0,33.0,25.9,09.3,0000.0,0008.59,0004.48,0004.17
2022-10-30 10:37:00,,0828.4,4.98,0.00,24.1,22.4,00.0,33.0,25.9,09.2,0000.0,0008.88,0004.49,0004.16
2022-10-30 10:38:00,,0828.4,5.01,0.00,24.1,22.5,00.0,33.0,25.9,09.2,0000.0,0008.94,0004.50,0004.16
2022-10-30 10:39:00,,0828.3,5.01,0.00,24.1,22.4,00.0,33.0,25.9,09.2,0000.0,0008.91,0004.48,0004.15
2022-10-30 10:40:00,,0828.3,4.98,0.00,24.1,22.4,00.0,33.0,25.9,09.2,0000.0,0008.71,0004.50,0004.14
2022-10-30 10:41:00,,0828.3,5.01,0.00,24.1,22.4,00.0,33.0,25.9,09.2,0000.0,0009.31,0004.50,0004.14
2022-10-30 10:42:00,,0828.3,5.01,0.00,24.1,22.4,00.0,33.0,25.9,09.2,0000.0,0009.00,0004.49,0004.15
2022-10-30 10:43:00,,0828.3,5.00,0.00,24.1,22.4,00.0,33.0,25.9,09.2,0000.0,0008.89,0004.49,0004.16
2022-10-30 10:44:00,,0828.3,4.99,0.00,24.1,22.4,00.0,33.0,25.8,09.1,0000.0,0009.02,0004.52,0004.17
2022-10-30 10:45:00,,0828.3,5.01,0.00,24.0,22.4,00.0,33.0,25.9,09.1,0000.0,0008.93,0004.50,0004.16
2022-10-30 10:46:00,,0828.3,5.00,0.00,24.1,22.4,00.0,33.0,25.9,09.3,0000.0,0008.75,0004.51,0004.18
2022-10-30 10:47:00,,0828.3,4.99,0.00,24.0,22.4,00.0,33.0,25.8,09.2,0000.0,0008.55,0004.51,0004.19
2022-10-30 10:48:00,,0828.3,5.00,0.00,24.0,22.4,00.0,33.0,25.8,09.4,0000.0,0008.31,0004.52,0004.20
2022-10-30 10:49:00,,0828.3,5.00,0.00,24.0,22.4,00.0,32.9,25.8,09.6,0000.0,0008.22,0004.50,0004.19
2022-10-30 10:50:00,,0828.3,4.98,0.00,24.0,22.4,00.0,32.9,25.7,09.6,0000.0,0008.76,0004.50,0004.19
2022-10-30 10:51:00,,0828.2,5.01,0.00,24.0,22.4,00.0,32.9,25.8,09.6,0000.0,0008.86,0004.46,0004.19
2022-10-30 10:52:00,,0828.3,5.01,0.00,24.0,22.3,00.0,32.9,25.7,09.4,0000.0,0008.21,0004.45,0004.18
2022-10-30 10:53:00,,0828.3,5.00,0.00,24.0,22.3,00.0,32.9,25.6,09.2,0000.0,0008.22,0004.47,0004.19
2022-10-30 10:54:00,,0828.3,4.99,0.00,24.0,22.3,00.0,32.9,25.7,09.3,0000.0,0008.20,0004.45,0004.18
2022-10-30 10:55:00,,0828.3,5.00,0.00,24.0,22.3,00.0,32.9,25.7,09.1,0000.0,0008.12,0004.41,0004.18
2022-10-30 10:56:00,,0828.3,5.00,0.00,24.0,22.3,00.0,32.9,25.7,09.1,0000.0,0008.36,0004.44,0004.19
2022-10-30 10:57:00,,0828.3,4.98,0.00,24.0,22.3,00.0,32.9,25.6,09.1,0000.0,0008.41,0004.46,0004.19
2022-10-30 10:58:00,,0828.3,5.00,0.00,24.0,22.3,00.0,32.9,25.7,09.1,0000.0,0008.41,0004.47,0004.19
2022-10-30 10:59:00,,0828.3,5.00,0.00,24.0,22.3,00.0,32.9,25.7,09.0,0000.0,0008.34,0004.47,0004.20
